Regional Weather Roundup
Issued by NWS

Home | Current Version | Previous Version | Graphics & Text | Print | Product List | Glossary On
Versions: 1 2 3 4 5 6 7 8 9 10 11 12 13 14 15 16 17 18 19 20 21 22 23 24 25 26 27 28 29 30 31 32 33 34 35 36 37 38 39 40 41 42 43 44 45 46 47 48 49 50
000
ASUS45 KBOU 261907
RWRCO

WEATHER ROUNDUP FOR COLORADO
NATIONAL WEATHER SERVICE DENVER/BOULDER CO
1200 PM MST MON JAN 26 2015

NOTE: "FAIR" INDICATES FEW OR NO CLOUDS BELOW 12000 FEET WITH NO
SIGNIFICANT WEATHER AND/OR OBSTRUCTIONS TO VISIBILITY.

COZ001>005-013-030-031-262000-
...NORTHWEST COLORADO...

CITY           SKY/WX    TMP DP  RH WIND       PRES   REMARKS
CRAIG          SUNNY     32  24  72 SW6       30.44F WCI  26
HAYDEN         SUNNY     36  21  55 E13       30.43F
MEEKER         SUNNY     36  32  85 MISG      30.43F
MOUNT WERNER   NOT AVBL
STEAMBOAT SPGS SUNNY     31  23  73 CALM      30.45F
WALDEN         SUNNY     36  23  60 CALM      30.48F
$$

COZ006>008-011-262000-
...WEST CENTRAL VALLEYS...

CITY           SKY/WX    TMP DP  RH WIND       PRES   REMARKS
GRAND JUNCTION SUNNY     48  26  42 S7        30.39F
MONTROSE       SUNNY     48  23  37 W3        30.42F
EAGLE          SUNNY     37  27  65 CALM      30.52F
RIFLE          SUNNY     46  25  43 E3        30.42F
DELTA          NOT AVBL
NUCLA          SUNNY     46  23  39 W6        30.40F
$$

COZ017>023-064>068-262000-
...SOUTHWEST COLORADO...

CITY           SKY/WX    TMP DP  RH WIND       PRES   REMARKS
DURANGO        SUNNY     46  24  42 CALM      30.37F
CORTEZ         SUNNY     53  20  27 CALM      30.35F
PAGOSA SPRINGS SUNNY     53  19  25 SW3       30.39F
TELLURIDE      SUNNY     50  14  23 CALM      30.47F
WOLF CREEK PAS NOT AVBL
$$

COZ009-010-012-014-032>034-037-058>063-262000-
...CENTRAL COLORADO...

CITY           SKY/WX    TMP DP  RH WIND       PRES   REMARKS
ASPEN          SUNNY     40  21  46 NW7       30.44F
BUENA VISTA    SUNNY     51  19  27 SE7       30.42F
COPPER MTN     SUNNY     41  10  28 NW7       30.61F
BERTHOUD PASS  FAIR      30  23  74 NW14      30.63F WCI  20
COTTONWOOD PAS SUNNY     52  14  22 SE7       30.50F
GUNNISON       SUNNY     16   1  53 E3        30.57F
KREMMLING      SUNNY    N/A N/A N/A CALM      30.56F
LEADVILLE      SUNNY     45  15  30 NW6       30.49F
MONARCH PASS   SUNNY     37  10  32 E16       30.69F
SALIDA         SUNNY     53  20  26 CALM      30.49F
SUNLIGHT       SUNNY     43  19  39 E5        30.56F
WILKERSON PASS SUNNY     43   9  24 W3        30.59F
$$

COZ069>075-262000-
...SAN LUIS VALLEY/SANGRE DE CRISTO MOUNTAINS...

CITY           SKY/WX    TMP DP  RH WIND       PRES   REMARKS
ALAMOSA        SUNNY     44  21  40 N6        30.44F
LA VETA PASS   NOT AVBL
SAGUACHE       SUNNY     36  23  60 CALM      30.46F
$$

COZ035-036-038>040-262000-
...NORTHERN COLORADO FRONT RANGE...

CITY           SKY/WX    TMP DP  RH WIND       PRES   REMARKS
DENVER INTL AP SUNNY     67  21  17 SW9       30.26F
DMNS CITY PARK   N/A     71  16  12 SW3       30.25F
AURORA         SUNNY     67  19  15 N8        30.28F
FRONT RANGE AP NOT AVBL
ERIE MUNI ARPT SUNNY     71  16  12 CALM      30.24F
BOULDER MUN AP SUNNY     72  21  15 E3        30.24F
CENTENNIAL     SUNNY     67  18  15 N6        30.29F
BROOMFIELD     SUNNY     70  25  18 SE8       30.28F
FORT COLLINS   SUNNY     64  34  32 SE7       30.25F
LONGMONT       SUNNY     74  21  13 SE5       30.25F
$$

COZ041-046-047-076>085-087-088-262000-
...PIKES PEAK/PALMER DIVIDE AND SOUTHERN FOOTHILLS...

CITY           SKY/WX    TMP DP  RH WIND       PRES   REMARKS
COLO. SPRINGS  SUNNY     64  20  18 CALM      30.32F
A. F. ACADEMY  SUNNY     61  21  21 N10       30.33F
ELLICOTT       SUNNY    N/A N/A N/A W3        30.31F
FALCON         SUNNY     62  18  18 N12G20    30.36F
FORT CARSON    SUNNY     61  24  24 VRB1      30.30F
LIMON          SUNNY     64  23  21 NW12      30.27F
MONUMENT HILL  SUNNY     57  23  26 NW13      30.35F
TRINIDAD       SUNNY     60  26  27 VRB5      30.33F
$$

COZ042>045-048>051-090-091-262000-
...NORTHEAST COLORADO...

CITY           SKY/WX    TMP DP  RH WIND       PRES   REMARKS
GREELEY ARPT   SUNNY     61  30  31 SW7       30.22F
AKRON          SUNNY     56  30  37 W10       30.22F
BURLINGTON     SUNNY     65  29  25 N18       30.21F
WRAY           SUNNY     66  30  26 NW15      30.17F
STERLING       SUNNY     64  37  36 S3        30.17F
HOLYOKE        SUNNY     66  28  24 NW18G25   30.16F
FORT MORGAN    SUNNY     56  29  35 SW6       30.23F
$$

COZ086-089-092>099-262000-
...SOUTHEAST COLORADO...

CITY           SKY/WX    TMP DP  RH WIND       PRES   REMARKS
PUEBLO         SUNNY     61  28  28 W6        30.27F
LA JUNTA       SUNNY     63  33  32 SW7       30.25F
LAMAR          SUNNY     62  35  36 W10       30.22F
SPRINGFIELD      N/A     66  28  24 N14G30    30.24F
$$


USA.gov is the U.S. government's official web portal to all federal, state and local government web resources and services.